STARLINK-1649

decayed
NORAD ID: 46552 Int'l Des: 2020-070 Owner: SPXS Country: US Constellation: starlink
LEOCIRCULAR

关于 STARLINK-1649

正在加载描述...

高度历史

Altitude vs Time

uPlot chart will show altitude changes over time

两行轨道根数

1 46552U 20070W 23083.37519219 .13224810 12164-4 29024-2 0 9992
2 46552 53.0042 249.7987 0007459 312.6137 40.6073 16.29633022137883
Epoch: Mar 24, 2023 • Age: 21759 hours

当前状态

Position data unavailable
发射日期 Oct 6, 2020
运行时间 4.9 years
衰减日期 Mar 24, 2023
类型 internet

技术详情

分类 Payload
质量 260.00 kg
干质量 248.00 kg
总质量 260.00 kg
长度 0.20 m
直径 2.80 m
跨度 9.00 m
形状 Box + pan
制造商 SPXS
平台类型 Starlink
阶段状态 Reentered
所有者/国家 SPXS/US

大型星座

Loading constellations...